Theta_e
326 326 325 326 332 339 339 339 340 333 333 334 334 334 333 334 332 330 333 336 331 331 338 341 343 346 338 340 336 330 328 330
326 325 324 325 327 334 336 336 337 331 330 331 333 335 335 337 340 338 339 337 339 335 330 335 340 336 337 333 325 326 326 325
325 325 325 326 328 332 335 336 338 333 330 331 332 334 338 339 341 340 342 341 340 337 334 334 337 339 334 327 328 327 325 325
323 323 324 325 329 334 335 336 340 344 341 337 336 336 334 340 339 340 339 341 339 337 337 335 332 333 328 327 323 323 328 324
326 326 326 330 331 336 335 337 339 342 345 340 335 335 338 335 342 342 342 342 339 338 336 334 334 333 331 327 324 326 326 325
332 331 332 335 334 337 338 343 340 341 343 342 342 341 339 341 344 341 345 343 341 339 337 333 335 330 333 327 322 324 322 325
333 337 336 338 338 338 335 341 342 342 342 346 343 343 342 343 341 342 343 344 344 337 337 333 330 332 330 329 326 321 326 322
337 338 341 341 341 341 340 343 342 342 342 345 344 344 341 340 343 341 341 344 343 339 332 330 333 331 326 331 326 325 326 325
337 338 341 345 343 342 343 341 344 342 342 341 341 338 342 342 341 345 343 341 341 332 330 328 331 329 329 328 329 324 322 327
335 334 335 340 345 345 346 344 343 343 344 341 342 340 344 343 342 342 343 337 334 332 331 330 331 330 331 329 325 323 323 323
333 333 334 335 340 348 350 349 345 343 345 345 342 342 340 338 337 337 339 339 337 334 333 331 331 331 327 326 325 324 320 323
334 332 333 336 338 347 350 351 345 344 344 343 341 337 333 336 338 339 338 339 338 336 334 333 333 332 330 329 328 325 325 321
333 333 336 339 341 343 349 350 346 344 346 342 343 338 339 336 338 337 338 338 338 338 335 334 330 330 329 330 329 328 325 322
335 337 338 339 341 345 349 350 348 347 346 347 341 338 339 337 334 333 337 338 337 336 336 333 332 331 329 329 330 329 326 322
331 335 337 336 339 344 348 348 346 347 346 346 346 343 341 336 335 335 334 333 335 336 335 334 332 332 330 330 328 329 327 326
326 334 335 335 333 336 341 344 344 344 344 344 348 345 342 339 339 337 335 333 335 337 337 335 335 335 333 332 330 330 330 329
322 324 329 329 332 330 327 325 331 343 343 344 343 341 341 338 334 337 336 337 337 335 335 334 335 335 333 330 330 329 329 329
324 327 332 331 330 331 328 326 327 340 343 340 340 343 342 339 337 330 329 330 332 334 335 332 333 333 332 329 326 328 325 327
322 324 331 330 326 325 325 324 338 339 340 339 339 338 334 330 328 327 329 329 330 334 336 334 332 329 328 326 326 327 326 326
317 323 327 326 323 322 325 332 330 327 332 336 332 330 329 327 327 328 332 333 336 334 333 332 332 331 328 327 325 325 323 321
Wind_Speed
11 10 12 12 16 15 16 15 13 12 9 7 4 4 4 4 7 6 5 4 4 4 3 3 2 4 1 2 4 2 3 3
9 9 9 9 8 16 13 10 13 8 7 7 7 5 5 5 6 7 3 1 2 3 3 3 3 2 4 2 2 3 7 7
8 9 9 9 9 10 8 9 9 9 7 6 5 5 6 5 5 5 2 2 2 3 4 4 4 4 2 3 2 4 5 4
8 9 8 8 9 9 8 8 8 8 5 6 5 5 4 5 4 5 5 4 3 2 2 3 3 4 3 3 2 2 4 3
11 13 12 13 11 11 10 9 8 6 4 4 4 5 4 3 4 7 6 5 3 1 2 1 3 3 5 3 2 2 4 3
10 9 12 14 13 13 11 10 8 6 4 3 3 3 3 4 5 5 6 6 5 1 2 2 4 1 4 3 1 3 1 1
9 11 11 14 14 12 11 12 12 9 7 4 3 4 4 4 3 4 4 5 5 5 3 2 3 2 2 3 1 1 2 3
8 11 14 10 15 11 9 9 11 11 6 3 3 3 1 3 4 5 6 4 5 5 4 2 2 2 1 2 4 1 2 4
9 8 10 11 16 14 11 9 12 8 3 4 2 3 3 3 2 6 6 5 6 5 3 2 2 3 4 5 3 3 2 2
9 8 8 8 13 13 11 9 11 8 7 4 3 3 3 3 4 6 6 7 7 5 4 3 2 4 3 5 5 2 2 1
12 10 9 9 9 10 10 10 11 7 8 4 2 3 3 1 2 3 6 8 7 7 6 5 5 3 2 3 4 5 4 3
14 14 9 9 8 8 9 10 11 9 8 7 6 5 5 5 5 2 4 6 7 7 7 6 5 3 3 2 4 4 3 5
16 16 14 7 9 9 8 9 9 7 7 8 7 6 4 1 4 7 6 6 7 7 7 7 6 4 4 4 3 5 4 3
18 15 9 8 9 10 10 10 10 9 8 8 8 7 4 4 4 5 4 3 4 6 6 6 6 5 5 5 5 5 5 5
15 16 13 10 12 9 8 7 4 5 6 6 6 5 6 7 5 3 3 3 4 7 7 6 5 7 7 6 6 6 6 4
10 15 12 10 16 12 10 8 1 3 4 6 7 7 5 4 4 3 0 2 3 6 6 6 7 7 6 6 4 5 6 6
12 11 13 18 17 17 13 7 6 9 7 7 7 4 4 5 3 4 2 3 3 4 4 6 6 7 7 6 5 6 6 7
11 12 16 17 21 14 11 15 11 8 6 5 4 5 5 6 5 3 4 3 4 7 6 6 5 5 5 6 6 6 6 7
13 9 10 17 21 19 14 7 6 7 7 7 6 5 7 5 3 0 3 4 5 7 6 5 4 4 5 5 6 6 6 8
7 12 13 14 14 11 7 5 3 1 2 3 4 6 6 4 1 3 5 6 5 6 4 4 4 3 3 4 5 5 6 6
Wind_Direction
143 148 156 163 168 159 172 170 166 164 152 167 174 179 184 203 208 197 230 221 188 148 166 163 217 204 229 224 307 314 304 294
148 155 151 136 133 155 171 159 156 154 159 173 178 171 196 197 196 206 174 177 163 187 170 178 211 205 226 213 262 322 20 8
151 135 141 131 115 135 140 125 128 162 178 179 172 178 196 187 167 189 142 100 96 122 178 191 208 174 202 194 44 5 356 352
137 134 145 131 130 135 143 132 125 132 156 173 136 154 177 137 160 174 138 117 101 59 331 34 79 150 159 111 88 9 12 319
161 164 163 152 153 145 149 149 145 134 127 130 136 154 151 173 139 161 145 123 110 19 5 164 59 112 119 114 20 18 38 9
169 175 162 157 156 152 154 156 153 157 168 175 162 155 132 151 143 152 148 137 139 142 3 113 61 159 121 124 139 320 41 171
179 172 163 163 161 156 166 153 162 165 188 194 142 103 130 132 156 148 151 165 175 151 103 94 51 82 139 155 246 177 318 308
209 168 170 155 161 160 173 151 160 166 168 167 142 140 162 151 155 164 183 163 164 137 110 98 29 63 232 170 202 236 232 292
168 155 155 156 163 161 178 154 162 156 149 156 156 187 173 204 172 169 170 129 108 117 124 129 249 210 207 211 175 210 303 297
164 159 143 147 161 175 168 151 157 159 152 169 165 171 186 184 166 158 165 137 143 147 170 192 227 241 238 187 170 178 232 229
169 171 172 166 161 162 165 147 162 164 158 141 118 78 45 68 204 168 168 164 170 170 182 197 215 170 198 212 186 179 205 277
175 177 179 177 173 152 151 152 154 161 175 149 153 172 182 211 188 164 185 178 186 179 189 205 211 196 194 222 218 207 171 241
182 183 181 168 147 156 148 141 147 170 170 157 173 195 201 242 136 158 186 195 199 195 188 197 203 192 204 210 244 244 210 197
187 179 148 145 147 142 150 145 166 167 184 179 183 200 218 142 153 161 187 203 219 209 202 198 200 203 207 218 231 238 230 224
146 156 152 151 153 139 131 99 128 181 196 192 183 197 192 178 172 183 212 216 202 214 192 193 209 199 210 215 219 229 223 212
150 140 138 132 92 71 73 66 288 277 256 232 200 202 155 164 190 207 290 326 283 218 205 207 201 207 211 218 217 222 223 231
65 55 63 89 67 80 80 8 324 288 232 236 230 199 132 145 47 55 29 11 305 294 272 239 223 211 209 221 227 227 223 237
101 101 115 119 119 131 180 215 210 244 219 269 276 150 122 102 98 58 27 341 307 297 278 273 257 247 236 223 252 249 255 255
147 137 124 131 145 163 192 172 186 189 194 207 200 181 108 94 96 348 293 283 269 265 278 281 295 275 274 281 272 258 250 261
132 123 125 139 158 130 159 139 190 297 328 318 152 97 98 115 253 268 271 259 277 253 261 271 279 267 258 248 262 278 279 278